#timestamp,LO_Frequency,Hit,StdDev 
1511208015.8,286046986.2,N
1511208035.7,286046984.8,N
1511208055.5,286046989.5,N
1511208075.3,286046983.7,N
1511208095.2,286046985.2,N
1511208115.9,286046979.0,Y
1511208135.7,286046992.1,P
1511208155.6,286046998.0,P
1511208175.4,286046990.2,P
1511208195.2,286046990.4,Y
1511208215.1,286046997.3,P
1511208216.0,286046997.3,N
1511208235.8,286047000.3,N
1511208255.6,286046993.9,N
1511208275.5,286046992.1,N
1511208295.3,286046994.3,N
1511208315.1,286046997.9,N
1511208335.9,286046995.7,N
1511208355.7,286046995.8,N
1511208375.5,286046993.8,N
1511208395.4,286046992.0,Y
1511208415.2,286047000.6,P
1511208435.0,286047003.8,N
1511208435.9,286047003.8,N
1511208455.7,286047006.1,N
1511208475.6,286047004.6,N
1511208495.4,286047005.5,N
1511208515.2,286047004.4,N
1511208535.1,286046998.4,N
1511208536.0,286046998.4,N
1511208555.8,286047000.6,N
1511208575.6,286046999.1,N
1511208595.5,286046999.4,N
1511208615.3,286047003.1,N
1511208635.1,286047007.6,N
1511208655.9,286047012.3,Y
1511208675.7,286047009.6,P
1511208695.5,286047009.3,N
1511208715.4,286047018.6,P
1511208735.2,286047019.8,Y
1511208755.0,286047007.1,P
1511208755.9,286047007.1,P
1511208775.8,286047001.3,N
1511208795.6,286047000.1,N
1511208815.4,286047004.9,N
1511208835.3,286047000.6,N
1511208855.1,286047000.0,N
1511208856.0,286047000.0,N
1511208875.8,286047003.8,N
1511208895.6,286046995.2,N
1511208915.5,286046997.3,N
1511208935.3,286046998.8,N
1511208955.1,286046996.6,N
1511208975.9,286046994.9,N
1511208995.7,286046999.1,N
1511209015.5,286046996.9,N
1511209035.4,286046998.0,N
1511209055.2,286047000.1,N
1511209075.0,286047004.2,N
1511209075.9,286047004.2,N
1511209095.8,286047007.7,N
1511209115.6,286047011.1,N
1511209135.4,286047008.3,N
1511209155.2,286047007.6,N
1511209175.1,286047005.6,N
1511209176.0,286047005.6,N
1511209195.8,286047004.2,N
1511209215.6,286046999.9,N
1511209235.5,286047005.0,N
1511209255.3,286047007.5,N
1511209275.1,286047004.9,N
1511209295.9,286047002.0,N
1511209315.7,286047003.9,N
1511209335.5,286046998.0,N
1511209355.4,286046998.0,N
1511209375.2,286046995.0,N
1511209395.0,286046996.3,N
1511209395.9,286046996.3,N
1511209415.8,286046994.4,N
1511209435.6,286046995.2,N
1511209455.4,286046995.7,N
1511209475.3,286046995.8,N
1511209495.1,286046995.1,N
1511209496.0,286046995.1,N
1511209515.8,286047000.2,N
1511209535.7,286046996.6,N
1511209555.5,286046995.2,N
1511209575.3,286046999.6,N
1511209595.1,286047003.9,N
1511209615.9,286047004.1,N
1511209635.7,286047003.5,N
1511209655.5,286046997.2,N
1511209675.4,286046995.4,N
1511209695.2,286047001.2,N
1511209715.0,286046999.7,N
1511209715.9,286046999.7,N
1511209735.8,286046999.9,N
1511209755.6,286046998.1,N
1511209775.4,286046998.4,N
1511209795.3,286047000.4,N
1511209815.1,286046998.2,N
1511209816.0,286046998.2,N
1511209835.8,286047000.2,N
1511209855.7,286047002.6,N
1511209875.5,286047009.1,Y
1511209895.3,286047010.7,P
1511209915.2,286047011.6,N
1511209935.9,286047013.9,N
1511209955.7,286047013.3,N
1511209975.6,286047012.8,N
1511209995.4,286047011.4,N
1511210015.2,286047014.2,N
1511210035.1,286047015.0,Y
1511210036.0,286047015.0,P
1511210055.8,286047007.3,P
1511210075.6,286047007.8,N
1511210095.5,286047008.9,N
1511210115.3,286047009.6,Y
1511210135.1,286046998.7,P
1511210155.9,286047004.6,N
1511210175.7,286047009.6,N
1511210195.5,286047012.2,N
1511210215.4,286047017.2,Y
1511210235.2,286047007.2,P
1511210255.0,286047002.9,P
1511210255.9,286047002.9,N
1511210275.7,286046998.4,N
1511210295.6,286047000.6,N
1511210315.4,286047001.5,N
1511210335.2,286046999.0,N
1511210355.1,286047002.0,N
1511210356.0,286047002.0,N
1511210375.8,286047002.1,N
1511210395.6,286047003.6,N
1511210415.5,286047000.7,N
1511210435.3,286046998.8,N
1511210455.1,286046998.6,N
1511210475.9,286047002.6,N
1511210495.7,286047003.4,N
1511210515.5,286047005.8,N
1511210535.4,286047004.0,N
1511210555.2,286047003.0,N
1511210575.0,286047009.2,Y
1511210575.9,286047009.2,P
1511210595.8,286047010.7,P
1511210615.6,286047004.8,N
1511210635.4,286047005.6,N
1511210655.3,286046998.6,N
1511210675.1,286047002.0,N
1511210676.0,286047002.0,N
1511210695.8,286047000.6,N
1511210715.7,286046997.6,N
1511210735.5,286046995.2,N
1511210755.3,286046993.1,N
1511210775.1,286046987.3,N
1511210795.9,286046984.4,N
1511210815.7,286046982.7,N
1511210835.5,286046981.1,N
1511210855.4,286046976.9,N
1511210875.2,286046974.1,N
1511210895.0,286046975.1,N
1511210895.9,286046975.1,N
1511210915.8,286046973.8,N
1511210935.6,286046966.6,N
1511210955.4,286046967.4,N
1511210975.3,286046966.6,N
1511210995.1,286046963.4,N
1511210996.0,286046963.4,N
1511211015.8,286046964.4,N
1511211035.7,286046960.3,N
1511211055.5,286046959.4,N
1511211075.3,286046956.6,N
1511211095.1,286046956.9,N
1511211115.9,286046960.2,N
1511211135.7,286046962.1,N
1511211155.5,286046961.9,N
1511211175.4,286046961.4,N
1511211195.2,286046959.8,N
1511211215.0,286046963.9,N
1511211215.9,286046963.9,N
1511211235.8,286046958.3,Y
1511211255.6,286046985.2,P
1511211275.4,286046985.5,N
1511211295.3,286046983.9,N
1511211315.1,286046980.6,Y
1511211335.8,286046999.6,P
1511211355.7,286046993.4,N
1511211375.5,286046993.4,N
1511211395.3,286046994.0,N
1511211415.2,286046987.4,N
1511211435.9,286046987.3,N
1511211455.7,286046987.1,N
1511211475.6,286046986.2,N
1511211495.4,286046983.7,Y
1511211515.2,286046996.9,P
1511211535.1,286046995.9,N
1511211536.0,286046995.9,N
1511211555.8,286046995.9,N
1511211575.6,286046993.3,N
1511211595.5,286046990.8,Y
